Location: Beuerbach
(48.1459°N, 10.9174°E)
Time: 20:04:19
(UTC+00:00)

SL-16 R/B - Pass Details

Date: 14 August 2024
Orbit: 842 x 845 km, 71.0° (Epoch: 07 September)

Event Time Altitude Azimuth Distance (km) Brightness Sun altitude
Exits shadow 23:45:01 31° 274° (W) 1,452 3.3 -27.7°
Maximum altitude 23:46:40 37° 309° (NW) 1,292 3.3 -27.6°
Drops below altitude 10° 23:51:55 10° 16° (NNE) 2,476 5.6 -27.5°
Sets 23:54:35 0° 25° (NNE) 3,415 6.5 -27.4°
